CAPE
0 0 0 0 0 0 0 0 0 0 0 0 0 0 0 0 0 0 0 0 0 0 0 0 0 0 0 0 0 0 0 0 0 0 126 642 752 772 1242 1301 1247 1114 1461 1678 1506 1481 1579 1580 1770 1863 2044 2175 2322 2012 1852 2059 1885 1730 1359 1309 1205 1066 1055 876 846 811 789 645 671 813 462 606 619 852 1204 1054 1014 720 1582 587 806 1260 1069 1382 1536 1418
0 0 0 0 0 0 0 0 0 0 0 0 0 0 0 0 0 0 0 0 0 0 0 0 0 0 0 0 0 0 0 0 0 0 0 42 242 406 778 1313 938 807 1661 1854 1797 1511 1645 1530 2050 2059 2061 2009 2135 2049 1893 2036 1946 1504 1464 1492 1346 1175 1066 946 880 731 745 731 821 625 542 654 886 910 849 857 897 1033 976 992 1020 1411 1087 1346 1646 1560
0 0 0 0 0 0 0 0 0 0 0 0 0 0 0 0 0 0 0 0 0 0 0 0 0 0 0 0 0 0 0 0 0 0 0 1 38 266 451 1005 1289 418 731 1147 1932 1519 1777 1915 2083 2105 2085 2147 2004 1881 1888 1956 1960 1879 1757 1509 1453 1707 1427 1203 906 881 850 1098 989 797 787 1270 895 981 1137 1239 602 835 669 774 644 879 1813 1482 1593 1650
0 0 0 0 0 0 0 0 0 0 0 0 0 0 0 0 0 0 0 0 0 0 0 0 0 0 0 0 0 0 0 0 0 0 0 0 5 78 289 460 1068 805 503 1279 1434 1638 1776 1947 2068 2110 2012 2045 1815 1823 1750 1886 1813 1892 1907 1591 1604 1261 1370 1227 1151 933 995 871 1232 1424 1130 1385 1126 1590 1119 1349 756 669 582 565 850 1432 1689 1747 1723 1330
0 0 0 0 0 0 0 0 0 0 0 0 0 0 0 0 0 0 2 0 0 0 0 0 0 0 0 0 0 0 0 0 0 0 0 0 0 4 120 62 806 1054 1114 1531 1858 2414 2344 2377 1915 2049 1886 1704 1643 1753 1642 1788 1790 1790 1875 1855 1694 1570 1612 878 1069 1301 1480 1506 1346 1324 1359 960 628 804 1077 1046 926 1033 478 777 1124 1971 1429 1422 957 937
0 0 0 0 0 0 0 0 0 0 0 0 0 0 0 0 0 0 0 0 0 0 0 0 0 0 0 0 0 0 0 0 0 0 0 0 1 0 16 114 391 1228 1267 855 1688 1874 1996 1920 1772 1991 1600 1874 1758 1831 1722 1789 1856 1792 1929 1984 1817 1501 1127 1108 966 1414 1500 1510 1199 477 625 599 822 1058 833 984 1110 928 587 773 446 1143 1256 986 947 913
0 2 0 0 0 0 0 0 0 0 0 0 0 0 0 0 0 0 0 0 0 0 0 0 0 1 0 0 0 0 0 0 0 0 0 0 0 0 0 8 84 907 1310 1073 1421 1874 1597 1746 2350 1924 2124 1904 2030 2070 2065 2015 1984 1811 1866 2146 1197 1191 985 966 1048 1244 1200 664 1050 1459 1050 681 920 829 1125 1092 918 692 748 1122 1473 728 1150 890 1095 967
0 0 0 0 0 0 0 0 0 0 0 0 0 0 0 0 0 0 0 0 0 0 2 0 9 34 5 0 0 0 0 0 1 0 0 0 0 0 0 0 58 323 1048 819 631 1271 1388 1249 1561 2278 2270 2627 2360 2230 2112 2226 2026 1855 1915 1541 1295 1286 1069 673 725 1067 1472 720 1761 1173 1355 782 777 1217 908 868 957 914 822 1437 1078 964 1091 984 1031 1157
0 0 0 0 0 0 0 0 0 0 0 0 0 0 0 0 0 0 0 0 0 0 0 6 33 19 0 0 0 0 7 0 0 50 233 302 341 193 47 0 0 55 940 847 1316 1288 1271 1706 2313 2128 2095 2282 2532 2239 2230 2102 1996 2026 1633 1341 1268 1025 528 595 830 784 950 1317 1459 1075 802 578 914 1097 1170 1419 835 1108 1618 1369 903 938 1026 1046 984 956
0 0 0 0 0 0 0 0 0 0 0 0 0 0 0 0 0 0 0 0 0 0 0 12 42 52 55 18 0 0 4 28 333 795 888 1028 899 281 66 117 46 1099 1210 1372 1557 1814 1862 2502 2755 2354 2133 1902 1994 2387 2098 2045 1961 1424 1284 1214 1039 1073 742 916 689 773 779 820 692 664 900 994 1153 1263 1184 943 1004 910 1268 1186 913 950 923 924 966 908
6 0 0 0 0 0 0 0 0 0 0 0 0 0 0 0 0 0 0 0 0 0 2 27 18 0 16 36 546 809 983 1170 1129 1052 1031 1050 926 628 322 94 117 382 1320 1429 973 1062 2655 2919 2663 2483 2099 1873 1907 2150 1962 1511 1335 965 798 720 794 1208 886 1063 822 697 817 778 957 1022 1091 1237 1248 1156 1103 792 931 832 911 1108 1010 916 889 893 846 916
0 0 0 0 0 0 0 0 0 0 0 0 0 0 0 0 0 0 0 0 0 0 24 36 28 0 3 140 558 740 1034 979 1100 1106 1063 1028 848 900 833 660 352 1412 1772 1458 1394 2249 2723 2470 2476 2411 2069 1862 1783 1804 1347 1293 1144 298 568 765 954 1144 997 777 814 952 784 838 929 863 921 872 1093 1119 817 822 758 767 912 933 878 782 684 676 748 884
0 0 0 0 0 0 0 0 0 0 0 0 0 0 0 0 0 0 0 0 3 1 25 22 33 64 41 24 539 817 821 1132 973 899 1117 1057 1000 1085 1034 497 773 2124 2461 2161 2381 2550 2570 2553 2497 2246 2175 1761 1889 1333 1063 697 589 751 797 806 1096 1033 826 765 633 766 806 769 760 862 981 1026 869 991 671 713 790 800 897 775 692 471 416 388 443 612
0 0 0 0 0 0 0 0 0 0 0 0 0 0 0 0 3 0 48 32 62 66 12 96 41 2 54 760 668 816 1100 1083 1214 1178 1350 1439 1618 1402 1242 1060 1915 2140 1896 2126 2174 2188 2377 2264 2149 2274 2096 2175 1428 1238 1035 829 708 906 1080 1108 1099 1116 891 840 696 629 818 780 745 971 1145 1245 1064 1112 902 596 294 512 855 765 552 488 489 458 539 574
0 0 0 0 0 0 0 0 0 0 0 0 0 0 0 0 4 0 2 53 48 74 44 52 79 66 55 407 1079 1249 934 1181 991 1032 1422 1448 1521 1588 1628 1492 1564 1462 1687 1635 1442 1523 2075 2050 1822 1982 1551 1438 1444 1433 1445 1432 983 1210 1211 1143 1142 1296 1026 824 688 606 746 820 856 880 1121 964 1048 1019 615 413 282 784 782 644 556 578 623 594 644 530
0 0 0 0 0 0 0 0 0 0 0 0 0 0 0 0 0 6 205 88 140 141 114 209 108 100 664 719 1027 888 898 1009 961 1032 1317 1392 1298 1238 1491 1277 1649 1597 1334 1295 1335 1878 1471 1809 2017 1946 1703 1526 1423 1368 1428 1322 1217 1100 1296 1199 1074 1190 1192 952 747 615 677 951 990 952 971 875 905 608 488 309 578 924 821 580 562 667 621 617 498 559
0 2 0 0 0 0 0 0 0 0 0 0 0 0 0 0 13 19 7 63 19 10 0 130 260 159 797 788 810 1035 1068 854 1006 847 1175 1250 1364 1391 1409 1476 1621 1824 1761 1560 1932 1947 1645 2017 1937 1656 1713 1574 1439 1541 1333 1198 1104 1148 1134 1129 1044 1199 956 960 851 860 1090 1204 1114 867 874 812 710 512 427 700 799 780 760 645 542 603 637 684 571 599
0 0 0 0 0 0 0 0 0 0 0 2 1 1 0 0 10 69 123 53 100 18 4 10 45 321 78 153 560 836 1180 1144 897 1061 1175 1150 1162 1330 1391 1576 1440 1523 1548 1544 1583 1580 1497 1662 1726 1556 1647 1498 1402 1449 1578 1257 893 1295 940 1088 1136 1307 934 1127 1013 1145 1288 1184 1013 1027 930 954 985 771 774 906 775 755 631 544 578 573 596 646 579 490
0 0 0 0 0 0 0 0 0 0 0 0 22 2 0 9 0 50 0 28 95 20 6 32 56 224 259 259 187 495 863 1116 1072 996 1199 1290 1294 1272 1513 1499 1294 1321 1342 1451 1623 1584 1504 1589 1624 1506 1547 1250 1059 1257 1456 1337 1363 1417 1243 946 1135 1273 1116 1078 1123 1279 1410 1489 1549 1132 1102 1323 1062 767 528 499 599 671 588 576 535 618 612 632 579 396
3 0 1 0 0 0 0 0 0 0 0 0 0 3 0 8 177 14 0 5 130 144 38 103 142 14 200 784 623 853 986 917 799 1040 1043 1258 1400 1382 1362 1348 1315 1321 1269 1234 1231 1128 1324 1639 1424 1365 1258 1264 1267 978 1166 1305 1139 1148 1207 1268 1137 1198 1140 1123 1330 1250 1368 1512 1443 1486 1489 1239 963 667 507 573 583 581 520 424 411 520 604 576 536 572
17 10 0 22 0 0 0 0 0 0 0 0 0 1 28 37 181 83 404 65 142 144 145 37 124 457 570 480 347 842 952 885 1090 1004 1122 1185 1187 1459 1377 1367 1292 1344 1325 1215 1319 1198 1270 1240 1142 1086 972 1215 1497 1230 1236 1326 1083 1078 1272 1253 1177 1104 1054 1214 1371 1145 1276 1371 1466 1413 1203 1200 899 752 549 532 416 430 387 345 370 464 503 436 420 444
0 0 0 6 0 0 0 0 0 0 0 0 0 0 6 81 150 181 194 17 69 56 9 13 41 523 498 887 669 812 483 606 733 1160 1162 1383 1218 1058 1249 1286 1335 1249 936 957 1169 1120 1134 1142 1128 1049 1140 1209 1007 912 1043 970 960 1476 1212 1110 1237 1034 940 1037 1204 1238 1422 1173 1426 1012 1445 1347 1013 788 516 379 339 421 422 365 380 465 381 380 466 295
0 24 14 3 17 13 13 0 0 0 3 29 12 1 0 1 5 220 86 149 57 18 47 224 216 166 720 805 756 1024 947 991 1083 1079 1013 1118 1014 1076 957 952 989 873 798 752 724 720 901 965 917 791 779 808 950 942 890 972 878 1014 784 952 1281 1124 1064 1159 1145 1266 1460 1341 1026 1191 990 1173 1112 824 641 436 484 504 377 423 355 295 339 380 426 320
2 0 68 6 28 14 137 18 18 14 25 64 81 107 92 44 8 55 190 180 85 39 3 29 115 350 688 674 1083 934 912 805 810 845 768 662 714 707 627 704 620 581 759 748 710 648 707 742 799 759 679 821 875 922 874 776 836 901 687 640 1088 1060 1040 972 1052 1233 1511 1035 1097 1524 1871 1486 945 868 791 646 636 548 488 347 463 131 256 228 193 178
12 91 56 178 40 2 169 60 112 28 0 3 119 160 40 126 205 160 286 220 29 87 21 72 121 29 817 973 796 863 718 564 757 745 806 739 558 566 563 542 454 403 412 451 443 643 642 775 714 604 656 590 619 585 610 714 708 727 672 708 564 1333 1045 1127 1116 883 1500 1753 1444 1136 1801 1805 915 884 741 685 698 620 430 451 284 196 182 201 61 45
38 124 24 79 150 80 44 30 84 125 82 8 7 57 123 98 412 310 285 329 34 16 4 52 411 704 743 827 716 544 643 385 575 666 718 724 720 657 559 474 474 345 197 282 352 439 447 537 479 468 490 383 337 319 296 571 645 621 661 635 974 1398 1057 1118 764 690 1153 1746 1088 1402 1566 1045 1258 709 629 563 607 602 520 435 265 134 223 25 22 89
120 280 181 142 135 42 121 65 101 1 387 66 66 329 170 82 42 202 425 190 61 29 31 76 437 786 651 829 573 493 558 469 543 648 679 675 578 537 452 498 475 440 276 289 309 371 327 285 260 239 178 267 262 240 151 289 526 619 638 775 699 1231 786 728 835 796 1308 1430 998 1553 1459 1373 1242 535 528 566 583 564 517 356 149 43 47 4 16 32
38 34 70 95 113 198 42 69 28 60 172 284 85 278 86 144 31 34 96 131 186 92 28 449 798 717 746 697 420 382 297 337 480 688 784 690 642 478 498 532 546 453 403 263 223 188 173 38 169 69 101 182 162 122 53 47 382 310 421 602 708 1096 940 1218 1086 962 721 734 626 774 805 779 718 646 771 618 581 497 499 310 114 57 13 11 6 6
322 21 151 203 79 273 37 40 129 192 144 44 94 683 327 155 225 138 422 815 660 185 66 392 762 723 641 465 353 360 266 355 447 572 695 735 647 580 484 530 579 489 388 287 216 112 241 96 50 2 1 0 13 46 35 43 65 86 113 170 602 738 1001 1076 1035 472 317 405 424 270 208 580 484 508 569 389 523 476 503 423 140 86 16 9 5 8
568 188 380 90 84 84 137 68 32 268 199 284 317 337 620 900 965 1265 1188 851 740 873 370 773 919 374 340 260 399 308 361 427 425 426 593 665 647 594 525 502 298 303 299 309 234 172 99 77 80 46 2 2 0 3 4 57 50 23 21 315 360 479 518 626 584 494 307 487 433 420 372 348 544 609 237 279 320 385 412 402 231 53 14 7 13 32
116 5 49 46 256 76 71 17 161 181 203 214 170 70 295 496 632 581 651 896 1057 557 725 770 358 432 226 210 321 232 342 384 399 418 508 572 629 579 548 516 277 360 377 281 224 142 64 17 4 7 1 2 2 0 0 8 4 13 44 125 289 322 294 434 408 333 36 276 275 260 271 387 396 298 382 640 204 249 268 322 218 47 12 29 25 48
155 37 83 311 102 61 150 157 64 175 50 199 54 26 173 319 292 124 196 191 546 505 803 650 359 319 46 17 242 192 306 404 316 275 349 474 494 476 548 502 498 427 347 277 185 88 148 151 149 102 48 20 24 8 4 10 14 0 6 2 42 124 218 243 274 163 212 41 65 113 94 124 123 45 99 121 19 293 311 190 118 36 7 10 4 2
286 303 131 134 46 82 105 116 122 126 167 120 55 2 4 72 49 26 10 2 303 507 366 287 226 290 200 161 174 234 116 329 299 256 271 310 297 366 442 507 473 381 349 258 139 170 203 180 151 44 8 36 50 40 30 14 15 13 7 0 0 1 90 146 163 206 166 151 109 116 37 21 48 35 40 51 53 58 46 139 366 50 15 39 93 92
389 438 69 90 20 44 45 42 49 261 83 14 22 3 4 2 12 89 93 2 142 27 61 190 344 273 98 137 180 200 203 133 224 210 138 202 271 291 385 431 398 340 296 246 138 256 195 105 48 26 8 13 45 64 39 26 45 39 10 0 1 0 0 72 133 126 125 115 74 30 70 40 22 63 24 18 43 73 37 40 110 88 116 197 303 298
248 118 70 14 18 4 40 59 25 31 0 1 7 1 9 3 1 3 3 5 2 12 5 10 126 3 169 214 138 96 53 55 31 126 60 45 161 159 242 310 286 279 305 182 96 97 134 110 38 11 14 30 36 55 46 16 22 28 9 12 12 3 0 56 0 0 17 8 8 8 5 3 5 4 3 31 25 8 15 57 143 314 401 384 314 117
31 37 14 2 18 6 3 23 110 6 1 0 2 4 4 10 1 6 2 1 1 1 1 0 2 1 80 123 58 73 23 43 130 43 82 169 302 320 209 346 364 360 334 230 125 68 59 33 67 67 40 25 20 27 6 3 11 14 14 29 10 6 6 1 6 5 3 26 34 2 69 4 0 1 8 20 26 21 42 111 164 173 145 114 77 109
122 102 1 12 23 17 4 4 8 6 4 0 0 1 1 1 2 4 0 2 2 2 2 1 0 2 9 54 46 125 31 74 167 11 1 137 192 162 249 328 384 319 244 169 92 55 62 16 59 32 20 10 14 12 5 2 0 8 5 0 6 10 4 16 7 9 12 1 0 0 0 7 1 2 1 12 2 0 32 109 136 269 421 328 153 125
36 55 17 6 0 2 26 6 2 17 3 3 0 0 4 4 3 6 4 8 4 2 3 0 1 1 5 34 26 27 44 72 57 2 91 52 86 189 123 175 271 230 183 92 26 55 68 35 38 58 22 10 2 5 9 3 4 9 2 2 6 2 4 14 9 4 4 10 1 0 0 0 2 0 0 0 0 0 0 4 18 53 81 102 120 62
33 33 88 3 5 0 33 21 4 31 4 2 0 0 0 3 3 4 5 6 6 8 6 2 1 1 0 16 29 2 5 48 41 13 122 126 69 7 210 262 224 205 188 150 111 60 8 1 14 9 1 2 2 0 1 6 1 2 2 1 3 6 4 13 5 5 11 5 1 3 2 4 6 6 7 5 1 3 4 0 8 8 8 14 5 0
32 30 5 14 1 38 7 6 25 2 0 1 6 0 0 0 2 1 3 2 2 5 1 2 2 0 1 5 48 20 4 31 6 30 35 96 46 2 0 65 88 61 2 33 45 74 80 12 2 4 5 11 0 0 0 1 0 1 2 2 0 1 1 2 4 5 4 3 0 0 1 4 4 3 1 0 0 1 0 1 0 0 10 0 0 0
23 18 4 3 29 41 35 3 12 2 0 3 2 2 2 6 0 4 8 0 2 2 2 3 2 2 2 2 3 32 23 4 1 1 15 54 95 126 90 57 40 8 4 9 26 20 8 2 5 2 2 0 0 0 0 0 0 1 0 1 0 0 0 0 0 0 0 0 0 0 0 0 0 0 0 0 0 0 0 3 0 0 0 0 0 0
2 8 8 6 12 3 17 38 7 4 0 0 0 0 2 1 0 2 1 10 2 3 0 3 3 6 7 1 0 0 2 1 3 1 2 6 16 49 73 37 23 4 7 15 17 5 0 0 1 4 0 0 0 0 0 0 0 0 0 0 0 0 0 0 0 0 0 0 0 0 0 0 0 0 0 1 1 0 0 0 0 0 2 0 1 1
0 0 5 12 0 1 0 2 4 16 0 3 0 0 0 2 1 2 3 3 4 2 2 4 10 1 2 1 2 3 1 2 0 1 1 3 9 7 3 2 3 6 8 8 5 5 4 5 0 2 3 1 0 1 4 0 1 0 0 0 0 0 0 0 0 0 0 0 0 0 0 0 0 0 0 0 0 0 0 0 0 0 0 0 0 0
1 1 7 0 2 34 0 4 5 1 1 4 2 2 1 5 1 1 3 4 0 8 8 4 3 1 0 0 1 4 2 3 0 0 0 2 3 8 6 9 7 8 3 2 2 3 6 5 1 0 0 0 0 0 1 1 3 3 3 4 0 0 0 0 0 0 0 0 0 0 0 0 0 0 0 0 0 0 0 0 0 0 0 0 0 0
0 0 0 3 0 0 8 5 2 0 0 3 4 7 6 3 2 4 1 1 7 5 2 2 3 3 1 1 2 0 2 2 2 0 2 5 3 3 6 6 4 6 5 5 4 4 6 3 0 0 0 0 2 1 2 0 4 2 4 7 0 0 0 0 0 0 0 0 0 0 0 0 0 0 0 0 0 0 0 0 0 0 0 0 0 0
0 2 0 0 1 0 1 4 0 1 4 4 5 4 4 3 1 4 2 1 2 2 3 4 5 5 5 1 6 4 1 0 0 0 0 0 0 0 1 2 4 5 7 9 10 6 3 2 0 0 0 0 1 0 0 0 0 0 0 0 2 0 0 0 0 0 2 0 0 0 0 0 0 0 0 0 0 0 0 0 0 0 0 0 0 0
0 1 8 0 0 0 5 0 1 0 0 8 4 2 1 3 3 4 4 4 4 12 9 10 1 3 1 2 1 5 8 6 10 6 2 0 0 0 0 0 2 3 4 5 5 4 2 0 0 0 0 0 0 0 0 0 0 0 0 0 2 4 2 2 0 0 0 1 1 1 0 0 0 0 0 0 0 0 0 0 0 0 0 0 0 0
2 1 1 4 1 1 4 4 1 1 0 4 2 3 1 1 2 4 5 5 7 13 16 4 0 0 0 1 1 1 1 0 1 1 0 1 2 1 0 0 0 0 1 1 0 0 0 0 0 0 0 0 0 0 0 0 0 0 0 0 0 0 0 0 0 0 1 5 7 5 1 0 0 0 0 0 0 0 0 0 0 0 0 0 0 0
1 1 4 0 1 0 1 2 3 1 0 0 8 6 4 2 4 3 2 2 2 1 0 0 0 5 2 0 1 2 1 2 4 1 0 2 2 2 2 2 2 1 1 1 0 1 0 0 0 0 0 0 0 0 0 0 0 0 0 0 0 0 0 0 0 0 0 0 0 0 0 0 0 0 0 0 0 0 0 0 0 0 0 0 0 0
0 0 1 2 1 3 1 0 11 1 0 0 0 7 4 3 1 2 1 0 0 0 0 0 0 0 0 0 0 2 5 6 10 2 0 0 1 0 1 1 2 1 0 0 1 2 0 1 1 0 0 0 0 0 0 0 0 0 0 0 0 0 0 0 0 0 0 0 0 0 0 0 0 0 0 0 0 0 0 0 0 0 0 0 0 0
0 1 4 1 1 2 2 2 2 1 3 7 5 1 2 6 0 2 2 2 1 0 1 1 0 0 0 0 0 2 5 10 5 0 3 5 4 3 3 5 6 3 2 2 1 3 2 3 2 1 0 0 0 0 0 0 0 0 0 0 0 0 0 0 0 0 0 0 0 0 0 0 0 0 0 0 0 0 0 0 0 0 0 0 0 0
Wind_Speed
nan nan nan nan nan nan nan nan nan nan nan nan nan nan nan nan nan nan nan nan nan nan nan nan nan nan nan nan nan nan nan nan nan nan 26 23 23 21 22 26 34 37 35 30 26 27 27 30 32 32 31 31 31 26 18 14 15 18 15 10 8 7 6 6 9 11 11 10 9 10 8 12 15 18 19 19 20 18 21 20 18 16 16 18 18 19
nan nan nan nan nan nan nan nan nan nan nan nan nan nan nan nan nan nan nan nan nan nan nan nan nan nan nan nan nan nan nan nan nan nan nan nan 20 18 18 27 32 33 41 30 28 26 27 29 31 30 30 29 30 25 18 14 12 15 14 14 14 13 12 10 10 14 14 12 12 12 10 13 17 19 20 18 22 18 19 17 16 15 15 16 18 16
nan nan nan nan nan nan nan nan nan nan nan nan nan nan nan nan nan nan nan nan nan nan nan nan nan nan nan nan nan nan nan nan nan nan nan nan nan 19 18 23 37 35 37 35 23 23 24 25 27 25 25 26 26 23 15 11 9 9 13 14 16 15 15 14 16 16 15 14 12 10 12 12 19 19 23 22 22 20 18 14 16 12 16 16 18 14
nan nan nan nan nan nan nan nan nan nan nan nan nan nan nan nan nan nan nan nan nan nan nan nan nan nan nan nan nan nan nan nan nan nan nan nan nan nan 16 19 40 31 28 40 26 24 22 22 23 23 23 25 24 19 11 8 6 4 7 12 15 16 14 18 18 14 14 13 12 15 17 18 24 24 24 24 24 19 18 14 9 20 16 19 16 14
nan nan nan nan nan nan nan nan nan nan nan nan nan nan nan nan nan nan nan nan nan nan nan nan nan nan nan nan nan nan nan nan nan nan nan nan nan nan 15 nan 34 36 25 31 33 26 24 21 21 22 23 24 22 16 10 6 3 4 5 10 12 14 16 17 16 15 14 16 17 21 23 29 29 26 24 25 21 20 20 15 13 19 18 18 16 13
nan nan nan nan nan nan nan nan nan nan nan nan nan nan nan nan nan nan nan nan nan nan nan nan nan nan nan nan nan nan nan nan nan nan nan nan nan nan nan 15 22 31 30 28 32 30 24 21 22 23 23 23 20 14 10 6 3 3 6 9 15 20 21 23 20 17 17 18 18 19 21 24 22 23 22 21 20 19 21 16 13 18 19 18 15 14
nan nan nan nan nan nan nan nan nan nan nan nan nan nan nan nan nan nan nan nan nan nan nan nan nan nan nan nan nan nan nan nan nan nan nan nan nan nan nan nan nan 28 31 29 32 27 35 23 23 24 24 21 19 17 13 8 4 2 9 14 24 21 24 21 18 18 18 20 18 23 21 24 22 22 24 23 22 21 21 16 20 20 18 16 16 14
nan nan nan nan nan nan nan nan nan nan nan nan nan nan nan nan nan nan nan nan nan nan nan nan nan nan nan nan nan nan nan nan nan nan nan nan nan nan nan nan nan 25 37 28 30 29 33 23 15 20 18 16 19 19 16 11 7 8 12 25 33 34 30 25 18 17 20 21 24 25 26 30 29 23 25 21 20 21 20 20 19 20 17 16 16 14
nan nan nan nan nan nan nan nan nan nan nan nan nan nan nan nan nan nan nan nan nan nan nan nan nan nan nan nan nan nan nan nan nan nan 23 17 20 18 nan nan nan nan 38 31 33 30 27 22 16 18 13 13 18 19 16 13 15 18 25 31 29 24 24 22 24 19 16 25 29 30 30 26 23 21 23 23 23 21 24 18 17 18 17 16 16 14
nan nan nan nan nan nan nan nan nan nan nan nan nan nan nan nan nan nan nan nan nan nan nan nan nan nan nan nan nan nan nan nan 20 30 20 17 21 19 nan 24 nan 33 42 31 25 26 23 20 19 16 13 18 21 19 18 20 25 31 36 35 19 16 22 26 28 27 26 23 24 24 22 23 23 21 24 25 23 23 20 16 17 18 18 17 16 14
nan nan nan nan nan nan nan nan nan nan nan nan nan nan nan nan nan nan nan nan nan nan nan nan nan nan nan nan 21 23 28 28 27 22 18 19 20 20 18 nan 19 28 37 29 23 19 17 17 19 18 18 20 20 25 30 35 42 38 34 28 18 14 21 27 31 33 28 26 27 23 22 24 25 23 23 22 22 20 16 14 17 18 18 17 16 15
nan nan nan nan nan nan nan nan nan nan nan nan nan nan nan nan nan nan nan nan nan nan nan nan nan nan nan 21 27 26 29 28 22 21 17 17 17 20 19 20 18 30 31 24 20 17 19 20 20 19 18 20 20 26 34 45 43 33 27 28 20 13 18 27 33 35 33 24 25 28 26 25 25 24 22 23 20 16 11 14 18 17 18 17 17 16
nan nan nan nan nan nan nan nan nan nan nan nan nan nan nan nan nan nan nan nan nan nan nan nan nan nan nan nan 28 29 26 25 23 19 18 17 16 19 22 20 26 32 25 22 21 21 22 22 23 20 21 22 25 35 41 38 33 31 29 30 25 18 21 27 29 32 32 31 29 30 29 26 23 22 25 25 22 14 11 15 15 16 16 16 17 15
nan nan nan nan nan nan nan nan nan nan nan nan nan nan nan nan nan nan nan nan nan nan nan nan nan nan nan 29 27 25 26 22 22 21 16 19 19 18 20 19 25 26 24 23 22 22 22 23 22 21 23 29 37 38 39 34 29 30 31 29 25 23 22 26 31 36 34 32 28 25 26 23 20 21 26 24 15 4 13 14 15 16 17 17 17 15
nan nan nan nan nan nan nan nan nan nan nan nan nan nan nan nan nan nan nan nan nan nan nan nan nan nan nan 28 32 29 25 25 22 23 21 16 17 18 17 16 17 22 18 20 21 21 22 22 19 21 25 30 33 30 32 28 28 29 32 30 27 26 25 27 31 34 36 33 30 25 24 22 20 22 27 22 6 10 13 14 16 16 16 16 15 14
nan nan nan nan nan nan nan nan nan nan nan nan nan nan nan nan nan nan 18 nan 21 17 10 15 13 20 24 26 29 24 23 24 25 24 21 18 18 19 16 12 13 15 18 14 13 19 22 19 19 19 23 30 31 30 29 26 25 26 30 31 29 28 27 29 31 32 33 34 31 29 28 25 24 25 26 17 11 15 13 14 16 15 15 16 15 14
nan nan nan nan nan nan nan nan nan nan nan nan nan nan nan nan nan nan nan nan nan nan nan 15 14 23 25 26 26 24 25 25 25 25 20 20 21 22 21 19 15 17 16 14 15 18 17 18 14 15 19 25 27 26 27 23 24 26 30 31 29 28 28 30 31 33 32 33 33 32 30 28 24 23 21 18 19 16 14 15 14 15 15 17 15 15
nan nan nan nan nan nan nan nan nan nan nan nan nan nan nan nan nan nan 17 nan nan nan nan nan nan 20 nan 24 22 24 25 25 26 26 23 21 23 24 26 26 23 20 18 16 14 15 15 16 16 15 19 22 25 24 25 24 23 25 29 29 28 29 29 29 31 31 32 33 31 30 30 28 25 22 20 22 20 17 16 16 15 15 16 16 15 16
nan nan nan nan nan nan nan nan nan nan nan nan nan nan nan nan nan nan nan nan nan nan nan nan nan 14 28 30 21 17 20 21 22 23 23 24 24 26 28 29 27 24 23 21 20 19 19 20 22 22 21 23 23 25 26 27 24 27 28 29 28 31 29 29 28 30 31 31 28 28 29 29 25 24 24 23 20 19 17 16 16 14 14 15 16 16
nan nan nan nan nan nan nan nan nan nan nan nan nan nan nan nan 17 nan nan nan 17 14 nan 12 7 nan 24 26 24 19 18 16 18 22 24 25 26 27 29 30 28 28 27 25 26 26 27 28 28 29 30 26 29 25 28 29 26 26 28 28 30 34 32 27 27 29 31 28 27 30 31 26 23 23 24 24 23 20 18 16 18 14 14 15 17 18
nan nan nan nan nan nan nan nan nan nan nan nan nan nan nan nan 21 nan 25 nan 17 17 15 nan 14 28 25 21 21 16 17 17 17 22 25 25 28 30 35 35 35 36 34 33 32 33 32 29 30 33 29 26 31 30 28 27 26 26 28 27 30 33 32 28 27 29 29 25 26 29 26 20 23 24 24 25 24 21 19 19 20 16 16 19 19 19
nan nan nan nan nan nan nan nan nan nan nan nan nan nan nan nan 15 14 17 nan nan nan nan nan nan 24 23 17 22 18 16 15 19 26 28 29 30 32 33 39 40 37 38 38 37 35 36 37 36 36 37 35 33 30 29 32 24 25 26 23 30 32 31 29 29 29 28 26 25 25 19 22 25 25 25 26 24 21 20 20 19 17 17 19 20 19
nan nan nan nan nan nan nan nan nan nan nan nan nan nan nan nan nan 18 nan 19 nan nan nan 8 23 24 19 17 19 22 23 25 26 26 30 31 31 30 32 35 39 42 42 40 38 37 38 38 37 36 35 35 34 33 33 34 32 26 26 24 30 30 30 28 28 27 26 28 25 22 19 22 23 23 23 24 23 21 21 20 18 17 17 17 19 19
nan nan nan nan nan nan 24 nan nan nan nan nan nan 20 nan nan nan nan 22 26 nan nan nan nan 17 27 16 15 20 20 22 25 27 31 30 31 32 32 32 32 34 37 40 41 40 38 39 40 39 39 40 38 37 36 36 36 36 34 30 29 27 30 29 27 25 24 24 27 25 19 23 22 22 23 23 23 22 21 21 21 19 17 19 18 18 18
nan nan nan 22 nan nan 20 nan 19 nan nan nan 20 18 nan 19 21 23 21 22 nan nan nan nan 17 nan 23 17 19 20 21 26 27 28 30 29 30 30 30 30 30 31 32 34 37 39 38 41 42 41 40 39 37 37 37 36 37 34 30 31 27 26 25 24 23 22 21 23 26 23 22 23 24 24 23 23 22 21 21 21 19 21 19 20 nan nan
nan 20 nan nan 18 nan nan nan nan 20 nan nan nan nan 22 nan 21 21 22 22 nan nan nan nan 22 27 21 16 19 20 23 26 25 26 26 27 28 27 26 27 28 29 31 34 36 38 40 39 39 38 38 38 38 37 35 36 38 35 35 27 24 25 22 22 20 20 20 22 25 24 24 24 25 25 25 25 23 21 21 20 21 21 21 nan nan nan
23 26 26 25 26 nan 32 nan 27 nan 26 nan nan 24 26 nan nan 23 24 23 nan nan nan nan 27 25 19 15 16 18 24 24 24 26 25 25 26 25 25 26 27 29 31 34 34 34 35 38 39 39 40 40 38 37 38 37 38 37 30 29 22 23 23 21 21 21 23 24 27 25 26 26 28 27 27 27 24 22 22 22 22 nan nan nan nan nan
nan nan nan nan 24 30 nan nan nan nan 24 24 nan 25 nan 24 nan nan nan 23 28 nan nan 32 29 24 17 21 19 21 21 22 23 24 24 24 24 24 26 26 28 28 29 29 31 33 34 nan 37 nan 37 38 39 39 nan nan 34 33 28 30 28 25 25 25 24 26 29 30 31 31 32 33 31 27 27 27 25 23 23 24 24 nan nan nan nan nan
32 nan 27 22 nan 23 nan nan 36 31 28 nan nan 30 24 22 18 17 19 28 29 22 nan 26 25 25 21 21 22 23 22 22 23 23 23 23 23 25 27 28 27 27 26 28 29 30 33 nan nan nan nan nan nan nan nan nan nan nan 26 28 28 28 27 26 27 34 32 31 34 32 29 26 30 27 25 25 24 23 24 25 25 nan nan nan nan nan
33 30 33 nan nan nan 33 nan nan 33 28 28 31 26 28 29 31 31 34 33 30 33 36 32 34 32 25 21 20 21 22 23 22 21 22 23 23 24 25 26 26 26 26 27 27 28 nan nan nan nan nan nan nan nan nan nan nan nan nan 26 28 30 31 33 36 38 37 35 33 32 31 28 29 29 28 23 23 24 25 25 26 nan nan nan nan nan
34 nan nan nan 22 nan nan nan 27 32 23 38 42 nan 35 32 34 34 34 38 39 42 41 40 37 32 25 22 19 19 21 22 22 24 24 25 24 24 23 24 24 25 26 25 26 27 nan nan nan nan nan nan nan nan nan nan nan nan nan 31 31 32 32 32 31 38 nan 39 37 35 33 33 32 29 30 28 25 24 24 24 24 nan nan nan nan nan
33 nan nan 26 23 nan 25 26 nan 29 nan 42 nan nan 40 35 34 35 33 35 34 34 34 34 31 27 nan nan 25 23 24 25 25 24 24 24 26 25 24 24 24 25 25 24 25 nan 26 27 26 26 nan nan nan nan nan nan nan nan nan nan nan 30 32 33 31 34 36 nan nan 35 nan 33 32 nan nan 35 nan 31 28 24 24 nan nan nan nan nan
29 30 29 28 nan nan 30 26 26 29 37 36 nan nan nan nan nan nan nan nan 38 31 31 30 31 33 29 27 27 27 27 28 27 25 24 26 27 27 27 26 26 26 25 25 25 24 24 24 23 nan nan nan nan nan nan nan nan nan nan nan nan nan nan 29 28 29 31 32 32 30 nan nan nan nan nan nan nan nan nan 30 30 nan nan nan nan nan
29 25 nan nan nan nan nan nan nan 30 nan nan nan nan nan nan nan nan nan nan 41 nan nan 38 37 34 nan 29 29 29 30 30 30 29 27 26 26 28 29 29 29 28 28 27 26 26 24 23 nan nan nan nan nan nan nan nan nan nan nan nan nan nan nan nan 30 29 29 29 nan nan nan nan nan nan nan nan nan nan nan nan 30 nan 30 31 31 31
23 19 nan nan nan nan nan nan nan nan nan nan nan nan nan nan nan nan nan nan nan nan nan nan 39 nan 35 35 34 nan nan nan nan 33 nan nan 29 29 31 31 31 31 31 29 nan nan 26 24 nan nan nan nan nan nan nan nan nan nan nan nan nan nan nan nan nan nan nan nan nan nan nan nan nan nan nan nan nan nan nan nan 28 30 30 31 31 31
nan nan nan nan nan nan nan nan 18 nan nan nan nan nan nan nan nan nan nan nan nan nan nan nan nan nan nan 37 nan nan nan nan 37 nan nan 32 30 30 31 32 33 33 33 30 30 nan nan nan nan nan nan nan nan nan nan nan nan nan nan nan nan nan nan nan nan nan nan nan nan nan nan nan nan nan nan nan nan nan nan 27 27 28 29 31 nan 32
29 23 nan nan nan nan nan nan nan nan nan nan nan nan nan nan nan nan nan nan nan nan nan nan nan nan nan nan nan 34 nan nan 38 nan nan 34 33 32 32 32 33 34 32 31 nan nan nan nan nan nan nan nan nan nan nan nan nan nan nan nan nan nan nan nan nan nan nan nan nan nan nan nan nan nan nan nan nan nan nan 26 27 26 27 30 29 27
nan nan nan nan nan nan nan nan nan nan nan nan nan nan nan nan nan nan nan nan nan nan nan nan nan nan nan nan nan nan nan nan nan nan nan nan nan 35 34 34 34 34 34 nan nan nan nan nan nan nan nan nan nan nan nan nan nan nan nan nan nan nan nan nan nan nan nan nan nan nan nan nan nan nan nan nan nan nan nan nan nan nan nan 26 24 nan
nan nan nan nan nan nan nan nan nan nan nan nan nan nan nan nan nan nan nan nan nan nan nan nan nan nan nan nan nan nan nan nan nan nan 34 34 nan nan 36 36 36 35 34 35 35 nan nan nan nan nan nan nan nan nan nan nan nan nan nan nan nan nan nan nan nan nan nan nan nan nan nan nan nan nan nan nan nan nan nan nan nan nan nan nan nan nan
nan nan nan nan nan nan nan nan nan nan nan nan nan nan nan nan nan nan nan nan nan nan nan nan nan nan nan nan nan nan nan nan nan nan nan nan nan nan nan nan nan nan nan nan nan nan nan nan nan nan nan nan nan nan nan nan nan nan nan nan nan nan nan nan nan nan nan nan nan nan nan nan nan nan nan nan nan nan nan nan nan nan nan nan nan nan
nan nan nan nan nan nan nan nan nan nan nan nan nan nan nan nan nan nan nan nan nan nan nan nan nan nan nan nan nan nan nan nan nan nan nan nan nan 38 nan nan nan nan nan nan nan nan nan nan nan nan nan nan nan nan nan nan nan nan nan nan nan nan nan nan nan nan nan nan nan nan nan nan nan nan nan nan nan nan nan nan nan nan nan nan nan nan
nan nan nan nan nan nan nan nan nan nan nan nan nan nan nan nan nan nan nan nan nan nan nan nan nan nan nan nan nan nan nan nan nan nan nan nan nan nan nan nan nan nan nan nan nan nan nan nan nan nan nan nan nan nan nan nan nan nan nan nan nan nan nan nan nan nan nan nan nan nan nan nan nan nan nan nan nan nan nan nan nan nan nan nan nan nan
nan nan nan nan nan nan nan nan nan nan nan nan nan nan nan nan nan nan nan nan nan nan nan nan nan nan nan nan nan nan nan nan nan nan nan nan nan nan nan nan nan nan nan nan nan nan nan nan nan nan nan nan nan nan nan nan nan nan nan nan nan nan nan nan nan nan nan nan nan nan nan nan nan nan nan nan nan nan nan nan nan nan nan nan nan nan
nan nan nan nan nan nan nan nan nan nan nan nan nan nan nan nan nan nan nan nan nan nan nan nan nan nan nan nan nan nan nan nan nan nan nan nan nan nan nan nan nan nan nan nan nan nan nan nan nan nan nan nan nan nan nan nan nan nan nan nan nan nan nan nan nan nan nan nan nan nan nan nan nan nan nan nan nan nan nan nan nan nan nan nan nan nan
nan nan nan nan nan nan nan nan nan nan nan nan nan nan nan nan nan nan nan nan nan nan nan nan nan nan nan nan nan nan nan nan nan nan nan nan nan nan nan nan nan nan nan nan nan nan nan nan nan nan nan nan nan nan nan nan nan nan nan nan nan nan nan nan nan nan nan nan nan nan nan nan nan nan nan nan nan nan nan nan nan nan nan nan nan nan
nan nan nan nan nan nan nan nan nan nan nan nan nan nan nan nan nan nan nan nan nan nan nan nan nan nan nan nan nan nan nan nan nan nan nan nan nan nan nan nan nan nan nan nan nan nan nan nan nan nan nan nan nan nan nan nan nan nan nan nan nan nan nan nan nan nan nan nan nan nan nan nan nan nan nan nan nan nan nan nan nan nan nan nan nan nan
nan nan nan nan nan nan nan nan nan nan nan nan nan nan nan nan nan nan nan nan nan nan nan nan nan nan nan nan nan nan nan nan nan nan nan nan nan nan nan nan nan nan nan nan nan nan nan nan nan nan nan nan nan nan nan nan nan nan nan nan nan nan nan nan nan nan nan nan nan nan nan nan nan nan nan nan nan nan nan nan nan nan nan nan nan nan
nan nan nan nan nan nan nan nan nan nan nan nan nan nan nan nan nan nan nan nan nan nan nan nan nan nan nan nan nan nan nan nan nan nan nan nan nan nan nan nan nan nan nan nan nan nan nan nan nan nan nan nan nan nan nan nan nan nan nan nan nan nan nan nan nan nan nan nan nan nan nan nan nan nan nan nan nan nan nan nan nan nan nan nan nan nan
nan nan nan nan nan nan nan nan nan nan nan nan nan nan nan nan nan nan nan nan nan nan nan nan nan nan nan nan nan nan nan nan nan nan nan nan nan nan nan nan nan nan nan nan nan nan nan nan nan nan nan nan nan nan nan nan nan nan nan nan nan nan nan nan nan nan nan nan nan nan nan nan nan nan nan nan nan nan nan nan nan nan nan nan nan nan
nan nan nan nan nan nan nan nan nan nan nan nan nan nan nan nan nan nan nan nan nan nan nan nan nan nan nan nan nan nan nan nan nan nan nan nan nan nan nan nan nan nan nan nan nan nan nan nan nan nan nan nan nan nan nan nan nan nan nan nan nan nan nan nan nan nan nan nan nan nan nan nan nan nan nan nan nan nan nan nan nan nan nan nan nan nan
nan nan nan nan nan nan nan nan nan nan nan nan nan nan nan nan nan nan nan nan nan nan nan nan nan nan nan nan nan nan nan nan nan nan nan nan nan nan nan nan nan nan nan nan nan nan nan nan nan nan nan nan nan nan nan nan nan nan nan nan nan nan nan nan nan nan nan nan nan nan nan nan nan nan nan nan nan nan nan nan nan nan nan nan nan nan
Wind_Direction
nan nan nan nan nan nan nan nan nan nan nan nan nan nan nan nan nan nan nan nan nan nan nan nan nan nan nan nan nan nan nan nan nan nan 274 271 274 279 280 283 278 278 282 278 281 287 293 287 288 291 295 299 302 316 342 342 322 304 306 299 295 294 287 271 257 252 259 269 248 234 239 236 246 248 248 244 248 245 242 255 253 256 270 275 279 279
nan nan nan nan nan nan nan nan nan nan nan nan nan nan nan nan nan nan nan nan nan nan nan nan nan nan nan nan nan nan nan nan nan nan nan nan 283 281 283 286 286 284 276 268 264 276 286 285 292 291 291 297 303 313 343 352 337 312 308 299 277 272 275 281 269 264 270 269 261 250 236 239 248 248 246 247 249 241 251 252 260 261 258 270 277 278
nan nan nan nan nan nan nan nan nan nan nan nan nan nan nan nan nan nan nan nan nan nan nan nan nan nan nan nan nan nan nan nan nan nan nan nan nan 281 281 286 283 277 280 277 256 278 288 288 292 291 290 293 300 311 337 356 345 324 307 295 280 276 281 280 268 254 256 255 243 247 243 238 252 249 242 245 245 242 239 239 244 256 277 281 279 281
nan nan nan nan nan nan nan nan nan nan nan nan nan nan nan nan nan nan nan nan nan nan nan nan nan nan nan nan nan nan nan nan nan nan nan nan nan nan 283 280 279 278 280 286 292 288 285 288 288 289 289 290 293 304 331 348 351 299 296 293 295 290 285 274 267 257 258 252 245 240 237 236 241 243 247 247 252 254 243 249 252 268 274 280 279 283
nan nan nan nan nan nan nan nan nan nan nan nan nan nan nan nan nan nan nan nan nan nan nan nan nan nan nan nan nan nan nan nan nan nan nan nan nan nan 270 nan 280 284 286 285 292 283 271 278 287 283 284 284 291 301 313 338 335 245 275 280 280 266 265 262 262 268 258 253 242 237 239 239 236 245 243 244 252 251 242 236 245 270 277 276 274 274
nan nan nan nan nan nan nan nan nan nan nan nan nan nan nan nan nan nan nan nan nan nan nan nan nan nan nan nan nan nan nan nan nan nan nan nan nan nan nan 271 272 285 281 280 281 283 270 271 274 274 274 277 282 292 297 323 331 254 226 243 249 239 241 243 249 256 255 248 248 244 246 249 249 249 252 251 253 251 242 233 260 275 274 272 268 267
nan nan nan nan nan nan nan nan nan nan nan nan nan nan nan nan nan nan nan nan nan nan nan nan nan nan nan nan nan nan nan nan nan nan nan nan nan nan nan nan nan 280 280 272 272 273 260 233 258 267 269 280 292 299 304 316 336 274 224 229 241 232 244 247 247 263 251 250 249 247 245 252 255 252 252 246 244 238 237 251 269 271 268 269 268 267
nan nan nan nan nan nan nan nan nan nan nan nan nan nan nan nan nan nan nan nan nan nan nan nan nan nan nan nan nan nan nan nan nan nan nan nan nan nan nan nan nan 273 280 268 263 261 265 258 249 276 284 298 309 305 302 297 277 247 232 234 233 235 232 236 254 243 242 250 253 251 240 235 240 239 248 245 240 240 246 253 264 266 268 269 269 267
nan nan nan nan nan nan nan nan nan nan nan nan nan nan nan nan nan nan nan nan nan nan nan nan nan nan nan nan nan nan nan nan nan nan 262 243 234 230 nan nan nan nan 275 269 262 267 280 298 309 289 295 293 286 278 273 271 252 239 234 241 246 256 275 274 264 249 232 246 248 249 249 249 246 240 242 245 243 242 247 253 263 268 270 271 269 271
nan nan nan nan nan nan nan nan nan nan nan nan nan nan nan nan nan nan nan nan nan nan nan nan nan nan nan nan nan nan nan nan 259 261 261 242 233 227 nan 207 nan 253 266 269 274 281 289 302 291 285 268 246 249 269 265 255 245 234 237 244 249 270 276 276 272 260 252 257 253 258 260 261 256 249 247 241 239 239 243 246 268 271 273 272 271 269
nan nan nan nan nan nan nan nan nan nan nan nan nan nan nan nan nan nan nan nan nan nan nan nan nan nan nan nan 245 229 237 238 261 264 256 238 225 231 244 nan 204 248 266 262 265 269 270 275 267 261 258 249 253 252 249 247 244 246 251 264 276 276 274 272 274 270 268 271 280 277 270 270 267 264 257 247 234 234 231 261 278 283 280 276 272 268
nan nan nan nan nan nan nan nan nan nan nan nan nan nan nan nan nan nan nan nan nan nan nan nan nan nan nan 259 246 244 248 244 251 259 249 231 226 239 241 243 238 249 266 278 277 272 264 261 254 253 258 255 251 252 249 245 252 259 270 270 273 276 275 273 276 283 285 286 274 271 273 269 265 264 254 247 234 232 251 275 284 283 280 277 271 268
nan nan nan nan nan nan nan nan nan nan nan nan nan nan nan nan nan nan nan nan nan nan nan nan nan nan nan nan 267 247 246 247 246 248 243 228 232 238 236 237 246 253 252 258 256 255 255 252 251 246 249 248 245 237 246 255 259 268 273 279 289 299 286 279 277 280 286 291 283 272 265 265 264 257 250 236 221 223 264 278 284 280 276 272 265 265
nan nan nan nan nan nan nan nan nan nan nan nan nan nan nan nan nan nan nan nan nan nan nan nan nan nan nan 255 255 259 256 254 244 245 242 233 227 235 245 251 256 252 250 247 246 244 245 242 236 248 248 247 244 242 245 253 262 272 275 282 293 296 292 286 281 279 287 292 292 280 266 262 260 252 244 229 215 249 281 280 281 278 272 266 263 265
nan nan nan nan nan nan nan nan nan nan nan nan nan nan nan nan nan nan nan nan nan nan nan nan nan nan nan 257 262 260 259 249 245 237 237 237 238 241 244 243 250 260 245 234 226 231 232 234 238 237 250 253 254 262 267 269 274 276 277 279 285 283 286 289 288 284 291 294 299 293 280 273 267 257 247 227 229 297 287 282 281 272 266 261 260 264
nan nan nan nan nan nan nan nan nan nan nan nan nan nan nan nan nan nan 229 nan 228 219 239 269 260 249 250 264 258 260 254 250 239 238 239 235 239 240 236 236 235 250 253 242 218 224 232 232 239 241 248 263 271 273 275 283 283 282 282 284 285 284 285 289 289 289 294 298 297 297 290 281 264 257 246 243 279 281 273 276 271 263 258 253 253 256
nan nan nan nan nan nan nan nan nan nan nan nan nan nan nan nan nan nan nan nan nan nan nan 247 279 273 278 271 266 260 255 237 229 234 233 239 242 241 234 228 225 224 234 230 226 230 232 234 233 236 247 261 275 277 282 289 292 291 289 289 287 286 287 290 290 292 296 301 298 293 287 279 270 258 250 253 274 275 265 266 258 253 250 250 249 252
nan nan nan nan nan nan nan nan nan nan nan nan nan nan nan nan nan nan 221 nan nan nan nan nan nan 282 nan 268 261 256 248 234 225 228 235 234 236 237 232 224 218 221 222 220 222 222 222 226 230 230 241 254 262 268 277 284 285 286 289 293 289 285 289 293 295 294 298 303 296 289 288 288 278 268 263 261 269 267 264 262 251 250 244 247 248 250
nan nan nan nan nan nan nan nan nan nan nan nan nan nan nan nan nan nan nan nan nan nan nan nan nan 247 253 266 270 263 252 235 228 230 234 231 231 233 232 225 220 220 223 222 221 222 223 232 238 238 240 246 253 261 269 276 280 283 287 291 291 285 288 297 299 297 297 300 292 284 285 285 279 271 265 264 269 266 265 265 257 251 244 251 252 251
nan nan nan nan nan nan nan nan nan nan nan nan nan nan nan nan 211 nan nan nan 233 244 nan 250 252 nan 245 256 255 270 259 235 233 236 239 241 236 229 227 224 219 221 222 218 221 226 228 234 238 235 232 232 252 255 269 274 275 283 284 288 288 280 282 293 303 303 302 298 294 292 284 273 270 269 265 266 268 266 265 264 262 251 253 263 259 253
nan nan nan nan nan nan nan nan nan nan nan nan nan nan nan nan 213 nan 228 nan 230 232 238 nan 251 254 254 256 272 267 254 234 225 241 244 241 240 233 226 223 219 218 217 219 222 227 232 236 241 249 251 248 250 255 257 256 263 273 275 281 281 282 284 290 299 304 297 290 292 295 283 267 266 267 265 265 267 266 265 260 258 248 255 264 257 255
nan nan nan nan nan nan nan nan nan nan nan nan nan nan nan nan 240 239 243 nan nan nan nan nan nan 256 256 253 268 273 257 245 238 241 245 245 246 240 230 221 219 221 220 218 218 223 230 232 236 243 246 247 255 253 252 259 252 260 265 271 277 278 281 286 297 300 294 286 279 290 289 279 266 263 262 264 262 261 262 260 256 248 257 260 253 257
nan nan nan nan nan nan nan nan nan nan nan nan nan nan nan nan nan 239 nan 249 nan nan nan 234 260 258 247 245 251 255 256 239 226 237 245 242 242 245 240 230 220 218 219 217 216 219 227 233 236 243 247 251 254 259 271 276 276 259 248 261 274 278 281 284 292 296 290 281 280 284 284 276 267 262 265 264 259 261 260 257 253 255 257 254 252 257
nan nan nan nan nan nan 237 nan nan nan nan nan nan 211 nan nan nan nan 225 232 nan nan nan nan 251 256 249 249 248 251 249 242 233 229 235 240 238 237 240 238 230 220 217 214 213 218 227 233 236 240 247 253 252 256 262 267 269 273 266 261 262 277 279 279 283 287 284 275 275 281 283 275 267 267 265 264 259 261 258 251 249 257 256 252 255 262
nan nan nan 222 nan nan 237 nan 244 nan nan nan 230 238 nan 219 218 226 239 245 nan nan nan nan 234 nan 266 256 254 255 250 245 239 234 230 235 239 239 240 240 237 229 223 220 221 221 230 236 237 241 247 252 255 257 258 261 262 266 273 264 269 267 271 269 274 280 273 271 277 283 282 280 275 267 264 260 258 261 259 254 251 246 248 252 nan nan
nan 218 nan nan 220 nan nan nan nan 233 nan nan nan nan 225 nan 220 225 230 240 nan nan nan nan 245 249 255 254 251 252 256 247 242 240 237 235 236 237 239 239 236 235 233 232 231 230 233 239 243 248 251 254 256 256 255 252 255 253 255 256 251 255 252 261 266 270 263 262 266 269 275 276 272 266 258 256 256 258 256 254 251 247 240 nan nan nan
215 217 210 203 209 nan 220 nan 208 nan 214 nan nan 242 235 nan nan 216 223 235 nan nan nan nan 263 264 256 256 252 243 243 248 245 240 238 237 237 236 237 235 234 234 236 237 239 240 243 243 242 243 248 254 258 256 254 253 258 258 243 243 240 240 245 252 256 253 247 245 251 252 258 262 267 256 251 249 252 253 254 251 251 nan nan nan nan nan
nan nan nan nan 214 219 nan nan nan nan 223 207 nan 244 nan 234 nan nan nan 234 230 nan nan 237 260 269 270 260 249 243 240 238 238 239 240 239 239 237 236 234 231 233 235 239 239 240 241 nan 243 nan 243 246 249 249 nan nan 255 252 232 225 229 238 243 242 246 245 240 244 243 237 234 231 225 243 248 247 249 251 254 252 249 nan nan nan nan nan
222 nan 225 222 nan 225 nan nan 224 219 227 nan nan 236 242 248 248 244 235 234 235 239 nan 259 267 271 261 247 239 239 241 237 233 236 238 239 240 239 237 234 233 233 234 235 236 238 240 nan nan nan nan nan nan nan nan nan nan nan 230 230 233 235 245 241 241 248 248 243 246 250 251 245 247 221 234 253 250 248 253 255 253 nan nan nan nan nan
221 228 226 nan nan nan 227 nan nan 227 229 235 235 238 239 232 234 231 235 232 237 240 253 268 266 265 262 250 239 241 244 242 239 237 238 238 238 238 237 235 234 234 233 235 237 239 nan nan nan nan nan nan nan nan nan nan nan nan nan 233 231 230 222 227 231 245 247 248 253 253 251 252 247 245 227 237 255 252 251 252 254 nan nan nan nan nan
223 nan nan nan 242 nan nan nan 238 245 240 246 234 nan 231 236 237 233 236 239 245 249 257 264 266 260 252 252 251 250 248 249 246 238 234 232 234 236 236 235 234 234 234 236 238 241 nan nan nan nan nan nan nan nan nan nan nan nan nan 228 231 232 237 242 239 240 nan 244 247 248 249 244 241 234 234 237 254 255 256 251 252 nan nan nan nan nan
224 nan nan 234 239 nan 238 233 nan 245 nan 248 nan nan 228 228 234 233 236 232 235 251 259 263 262 261 nan nan 258 254 251 248 246 241 236 233 233 235 236 233 233 233 234 235 236 nan 241 242 243 244 nan nan nan nan nan nan nan nan nan nan nan 232 234 237 239 244 241 nan nan 241 nan 242 240 nan nan 239 nan 237 242 251 257 nan nan nan nan nan
224 223 228 231 nan nan 238 244 241 237 237 248 nan nan nan nan nan nan nan nan 234 234 256 251 250 260 269 266 263 255 251 248 244 240 241 239 237 238 237 235 233 234 235 235 237 237 239 242 242 nan nan nan nan nan nan nan nan nan nan nan nan nan nan 238 243 244 243 242 244 240 nan nan nan nan nan nan nan nan nan 239 243 nan nan nan nan nan
222 222 nan nan nan nan nan nan nan 246 nan nan nan nan nan nan nan nan nan nan 235 nan nan 246 256 260 nan 263 261 259 251 247 248 245 241 239 241 242 242 240 239 239 239 239 240 239 237 239 nan nan nan nan nan nan nan nan nan nan nan nan nan nan nan nan 231 233 237 241 nan nan nan nan nan nan nan nan nan nan nan nan 244 nan 247 249 249 251
228 229 nan nan nan nan nan nan nan nan nan nan nan nan nan nan nan nan nan nan nan nan nan nan 257 nan 255 255 255 nan nan nan nan 246 nan nan 242 244 245 244 243 242 242 240 nan nan 237 234 nan nan nan nan nan nan nan nan nan nan nan nan nan nan nan nan nan nan nan nan nan nan nan nan nan nan nan nan nan nan nan nan 247 248 252 255 255 255
nan nan nan nan nan nan nan nan 233 nan nan nan nan nan nan nan nan nan nan nan nan nan nan nan nan nan nan 258 nan nan nan nan 250 nan nan 242 243 244 246 246 245 245 244 242 242 nan nan nan nan nan nan nan nan nan nan nan nan nan nan nan nan nan nan nan nan nan nan nan nan nan nan nan nan nan nan nan nan nan nan 248 250 251 255 259 nan 259
218 227 nan nan nan nan nan nan nan nan nan nan nan nan nan nan nan nan nan nan nan nan nan nan nan nan nan nan nan 259 nan nan 247 nan nan 245 246 245 246 246 244 244 244 242 nan nan nan nan nan nan nan nan nan nan nan nan nan nan nan nan nan nan nan nan nan nan nan nan nan nan nan nan nan nan nan nan nan nan nan 250 251 256 259 260 261 263
nan nan nan nan nan nan nan nan nan nan nan nan nan nan nan nan nan nan nan nan nan nan nan nan nan nan nan nan nan nan nan nan nan nan nan nan nan 248 248 247 245 243 241 nan nan nan nan nan nan nan nan nan nan nan nan nan nan nan nan nan nan nan nan nan nan nan nan nan nan nan nan nan nan nan nan nan nan nan nan nan nan nan nan 256 266 nan
nan nan nan nan nan nan nan nan nan nan nan nan nan nan nan nan nan nan nan nan nan nan nan nan nan nan nan nan nan nan nan nan nan nan 245 245 nan nan 244 244 243 241 238 236 234 nan nan nan nan nan nan nan nan nan nan nan nan nan nan nan nan nan nan nan nan nan nan nan nan nan nan nan nan nan nan nan nan nan nan nan nan nan nan nan nan nan
nan nan nan nan nan nan nan nan nan nan nan nan nan nan nan nan nan nan nan nan nan nan nan nan nan nan nan nan nan nan nan nan nan nan nan nan nan nan nan nan nan nan nan nan nan nan nan nan nan nan nan nan nan nan nan nan nan nan nan nan nan nan nan nan nan nan nan nan nan nan nan nan nan nan nan nan nan nan nan nan nan nan nan nan nan nan
nan nan nan nan nan nan nan nan nan nan nan nan nan nan nan nan nan nan nan nan nan nan nan nan nan nan nan nan nan nan nan nan nan nan nan nan nan 246 nan nan nan nan nan nan nan nan nan nan nan nan nan nan nan nan nan nan nan nan nan nan nan nan nan nan nan nan nan nan nan nan nan nan nan nan nan nan nan nan nan nan nan nan nan nan nan nan
nan nan nan nan nan nan nan nan nan nan nan nan nan nan nan nan nan nan nan nan nan nan nan nan nan nan nan nan nan nan nan nan nan nan nan nan nan nan nan nan nan nan nan nan nan nan nan nan nan nan nan nan nan nan nan nan nan nan nan nan nan nan nan nan nan nan nan nan nan nan nan nan nan nan nan nan nan nan nan nan nan nan nan nan nan nan
nan nan nan nan nan nan nan nan nan nan nan nan nan nan nan nan nan nan nan nan nan nan nan nan nan nan nan nan nan nan nan nan nan nan nan nan nan nan nan nan nan nan nan nan nan nan nan nan nan nan nan nan nan nan nan nan nan nan nan nan nan nan nan nan nan nan nan nan nan nan nan nan nan nan nan nan nan nan nan nan nan nan nan nan nan nan
nan nan nan nan nan nan nan nan nan nan nan nan nan nan nan nan nan nan nan nan nan nan nan nan nan nan nan nan nan nan nan nan nan nan nan nan nan nan nan nan nan nan nan nan nan nan nan nan nan nan nan nan nan nan nan nan nan nan nan nan nan nan nan nan nan nan nan nan nan nan nan nan nan nan nan nan nan nan nan nan nan nan nan nan nan nan
nan nan nan nan nan nan nan nan nan nan nan nan nan nan nan nan nan nan nan nan nan nan nan nan nan nan nan nan nan nan nan nan nan nan nan nan nan nan nan nan nan nan nan nan nan nan nan nan nan nan nan nan nan nan nan nan nan nan nan nan nan nan nan nan nan nan nan nan nan nan nan nan nan nan nan nan nan nan nan nan nan nan nan nan nan nan
nan nan nan nan nan nan nan nan nan nan nan nan nan nan nan nan nan nan nan nan nan nan nan nan nan nan nan nan nan nan nan nan nan nan nan nan nan nan nan nan nan nan nan nan nan nan nan nan nan nan nan nan nan nan nan nan nan nan nan nan nan nan nan nan nan nan nan nan nan nan nan nan nan nan nan nan nan nan nan nan nan nan nan nan nan nan
nan nan nan nan nan nan nan nan nan nan nan nan nan nan nan nan nan nan nan nan nan nan nan nan nan nan nan nan nan nan nan nan nan nan nan nan nan nan nan nan nan nan nan nan nan nan nan nan nan nan nan nan nan nan nan nan nan nan nan nan nan nan nan nan nan nan nan nan nan nan nan nan nan nan nan nan nan nan nan nan nan nan nan nan nan nan
nan nan nan nan nan nan nan nan nan nan nan nan nan nan nan nan nan nan nan nan nan nan nan nan nan nan nan nan nan nan nan nan nan nan nan nan nan nan nan nan nan nan nan nan nan nan nan nan nan nan nan nan nan nan nan nan nan nan nan nan nan nan nan nan nan nan nan nan nan nan nan nan nan nan nan nan nan nan nan nan nan nan nan nan nan nan
nan nan nan nan nan nan nan nan nan nan nan nan nan nan nan nan nan nan nan nan nan nan nan nan nan nan nan nan nan nan nan nan nan nan nan nan nan nan nan nan nan nan nan nan nan nan nan nan nan nan nan nan nan nan nan nan nan nan nan nan nan nan nan nan nan nan nan nan nan nan nan nan nan nan nan nan nan nan nan nan nan nan nan nan nan nan
nan nan nan nan nan nan nan nan nan nan nan nan nan nan nan nan nan nan nan nan nan nan nan nan nan nan nan nan nan nan nan nan nan nan nan nan nan nan nan nan nan nan nan nan nan nan nan nan nan nan nan nan nan nan nan nan nan nan nan nan nan nan nan nan nan nan nan nan nan nan nan nan nan nan nan nan nan nan nan nan nan nan nan nan nan nan
nan nan nan nan nan nan nan nan nan nan nan nan nan nan nan nan nan nan nan nan nan nan nan nan nan nan nan nan nan nan nan nan nan nan nan nan nan nan nan nan nan nan nan nan nan nan nan nan nan nan nan nan nan nan nan nan nan nan nan nan nan nan nan nan nan nan nan nan nan nan nan nan nan nan nan nan nan nan nan nan nan nan nan nan nan nan